owner,sensor,date,latitude,longitude,vertical_datum,direction_of_sea_water_velocity,sea_water_speed,upward_sea_water_velocity,qcFlag 
COMPS,ioos:station:USF.COMPS:C10:1,2009-12-01T00:00:00Z,27.1690,-82.9260,4.0,7.1250163489018,8.0622577482985,-99999.0,'1111122,1111122,1199999999' 
COMPS,ioos:station:USF.COMPS:C10:1,2009-12-01T01:00:00Z,27.1690,-82.9260,4.0,26.565051177078,4.4721359549996,-99999.0,'1111122,1111122,1199999999' 
COMPS,ioos:station:USF.COMPS:C10:1,2009-12-01T02:00:00Z,27.1690,-82.9260,4.0,63.434948822922,2.2360679774998,-99999.0,'1111122,1111122,1199999999' 
COMPS,ioos:station:USF.COMPS:C10:1,2009-12-01T03:00:00Z,27.1690,-82.9260,4.0,135.0,1.4142135623731,-99999.0,'1111122,1111122,1199999999' 
COMPS,ioos:station:USF.COMPS:C10:1,2009-12-01T04:00:00Z,27.1690,-82.9260,4.0,180.0,2.0,-99999.0,'1111122,1111122,1199999999' 
COMPS,ioos:station:USF.COMPS:C10:1,2009-12-01T05:00:00Z,27.1690,-82.9260,4.0,240.94539590092,10.295630140987,-99999.0,'1111122,1111122,1199999999' 
COMPS,ioos:station:USF.COMPS:C10:1,2009-12-01T06:00:00Z,27.1690,-82.9260,4.0,254.74488129694,11.401754250991,-99999.0,'1111122,1111122,1199999999' 
COMPS,ioos:station:USF.COMPS:C10:1,2009-12-01T07:00:00Z,27.1690,-82.9260,4.0,251.56505117708,12.649110640674,-99999.0,'1111122,1111122,1199999999' 
COMPS,ioos:station:USF.COMPS:C10:1,2009-12-01T08:00:00Z,27.1690,-82.9260,4.0,255.06858282186,15.52417469626,-99999.0,'1111122,1111122,1199999999' 
COMPS,ioos:station:USF.COMPS:C10:1,2009-12-01T09:00:00Z,27.1690,-82.9260,4.0,270.0,13.0,-99999.0,'1111122,1111122,1199999999' 
COMPS,ioos:station:USF.COMPS:C10:1,2009-12-01T10:00:00Z,27.1690,-82.9260,4.0,270.0,10.0,-99999.0,'1111122,1111122,1199999999' 
COMPS,ioos:station:USF.COMPS:C10:1,2009-12-01T11:00:00Z,27.1690,-82.9260,4.0,270.0,5.0,-99999.0,'1111122,1111122,1199999999' 
COMPS,ioos:station:USF.COMPS:C10:1,2009-12-01T12:00:00Z,27.1690,-82.9260,4.0,303.69006752598,3.605551275464,-99999.0,'1111122,1111122,1199999999' 
COMPS,ioos:station:USF.COMPS:C10:1,2009-12-01T13:00:00Z,27.1690,-82.9260,4.0,270.0,3.0,-99999.0,'1111122,1111122,1199999999' 
COMPS,ioos:station:USF.COMPS:C10:1,2009-12-01T14:00:00Z,27.1690,-82.9260,4.0,270.0,1.0,-99999.0,'1113322,1111122,1199999999' 
COMPS,ioos:station:USF.COMPS:C10:1,2009-12-01T15:00:00Z,27.1690,-82.9260,4.0,270.0,7.0,-99999.0,'1111122,1111122,1199999999' 
COMPS,ioos:station:USF.COMPS:C10:1,2009-12-01T16:00:00Z,27.1690,-82.9260,4.0,270.0,8.0,-99999.0,'1111122,1111122,1199999999' 
COMPS,ioos:station:USF.COMPS:C10:1,2009-12-01T17:00:00Z,27.1690,-82.9260,4.0,264.80557109227,11.045361017187,-99999.0,'1111122,1111122,1199999999' 
COMPS,ioos:station:USF.COMPS:C10:1,2009-12-01T18:00:00Z,27.1690,-82.9260,4.0,274.398705355,13.038404810405,-99999.0,'1111122,1111122,1199999999' 
COMPS,ioos:station:USF.COMPS:C10:1,2009-12-01T19:00:00Z,27.1690,-82.9260,4.0,260.53767779197,12.165525060596,-99999.0,'1111122,1111122,1199999999' 
COMPS,ioos:station:USF.COMPS:C10:1,2009-12-01T20:00:00Z,27.1690,-82.9260,4.0,246.03751102542,9.8488578017961,-99999.0,'1111122,1111122,1199999999' 
COMPS,ioos:station:USF.COMPS:C10:1,2009-12-01T22:00:00Z,27.1690,-82.9260,4.0,45.0,22.62741699797,-99999.0,'1111122,1111122,1199999999' 
COMPS,ioos:station:USF.COMPS:C10:1,2009-12-01T23:00:00Z,27.1690,-82.9260,4.0,90.0,18.0,-99999.0,'1111122,1111122,1199999999' 
COMPS,ioos:station:USF.COMPS:C10:1,2009-12-02T00:00:00Z,27.1690,-82.9260,4.0,90.0,1.0,-99999.0,'1113322,1111122,1199999999' 
COMPS,ioos:station:USF.COMPS:C10:1,2009-12-02T01:00:00Z,27.1690,-82.9260,4.0,180.0,2.0,-99999.0,'1111122,1111122,1199999999' 
COMPS,ioos:station:USF.COMPS:C10:1,2009-12-02T02:00:00Z,27.1690,-82.9260,4.0,174.2894068625,10.049875621121,-99999.0,'1111122,1111122,1199999999' 
COMPS,ioos:station:USF.COMPS:C10:1,2009-12-02T03:00:00Z,27.1690,-82.9260,4.0,180.0,10.0,-99999.0,'1111122,1111122,1199999999' 
COMPS,ioos:station:USF.COMPS:C10:1,2009-12-02T04:00:00Z,27.1690,-82.9260,4.0,195.25511870306,11.401754250991,-99999.0,'1111122,1111122,1199999999' 
COMPS,ioos:station:USF.COMPS:C10:1,2009-12-02T05:00:00Z,27.1690,-82.9260,4.0,199.65382405805,14.866068747319,-99999.0,'1111122,1111122,1199999999' 
COMPS,ioos:station:USF.COMPS:C10:1,2009-12-02T06:00:00Z,27.1690,-82.9260,4.0,249.44395478042,17.088007490635,-99999.0,'1111122,1111122,1199999999' 
COMPS,ioos:station:USF.COMPS:C10:1,2009-12-02T07:00:00Z,27.1690,-82.9260,4.0,300.25643716353,13.89244398945,-99999.0,'1111122,1111122,1199999999' 
COMPS,ioos:station:USF.COMPS:C10:1,2009-12-02T11:00:00Z,27.1690,-82.9260,4.0,330.25511870306,24.186773244896,-99999.0,'1111122,1111122,1199999999' 
COMPS,ioos:station:USF.COMPS:C10:1,2009-12-02T12:00:00Z,27.1690,-82.9260,4.0,349.69515353123,11.180339887499,-99999.0,'1111122,1111122,1199999999' 
COMPS,ioos:station:USF.COMPS:C10:1,2009-12-02T13:00:00Z,27.1690,-82.9260,4.0,90.0,18.0,-99999.0,'1111122,1111122,1199999999' 
COMPS,ioos:station:USF.COMPS:C10:1,2009-12-02T14:00:00Z,27.1690,-82.9260,4.0,90.0,18.0,-99999.0,'1111122,1111122,1199999999' 
COMPS,ioos:station:USF.COMPS:C10:1,2009-12-02T17:00:00Z,27.1690,-82.9260,4.0,90.0,18.0,-99999.0,'1111122,1111122,1199999999' 
COMPS,ioos:station:USF.COMPS:C10:1,2009-12-02T18:00:00Z,27.1690,-82.9260,4.0,45.0,25.455844122716,-99999.0,'1111122,1111122,1199999999' 
COMPS,ioos:station:USF.COMPS:C10:1,2009-12-02T19:00:00Z,27.1690,-82.9260,4.0,22.61986494804,13.0,-99999.0,'1111122,1111122,1199999999' 
COMPS,ioos:station:USF.COMPS:C10:1,2009-12-02T20:00:00Z,27.1690,-82.9260,4.0,66.370622269343,17.464249196573,-99999.0,'1111122,1111122,1199999999' 
COMPS,ioos:station:USF.COMPS:C10:1,2009-12-02T22:00:00Z,27.1690,-82.9260,4.0,0.0,0.0,-99999.0,'1114422,1114422,1199999999' 
COMPS,ioos:station:USF.COMPS:C10:1,2009-12-02T23:00:00Z,27.1690,-82.9260,4.0,63.434948822922,17.888543819998,-99999.0,'1111122,1111122,1199999999' 
COMPS,ioos:station:USF.COMPS:C10:1,2009-12-03T00:00:00Z,27.1690,-82.9260,4.0,63.434948822922,17.888543819998,-99999.0,'1111122,1111122,1199999999' 
COMPS,ioos:station:USF.COMPS:C10:1,2009-12-03T02:00:00Z,27.1690,-82.9260,4.0,60.642246457209,18.357559750686,-99999.0,'1111122,1111122,1199999999' 
COMPS,ioos:station:USF.COMPS:C10:1,2009-12-03T03:00:00Z,27.1690,-82.9260,4.0,73.300755766006,10.440306508911,-99999.0,'1111122,1111122,1199999999' 
COMPS,ioos:station:USF.COMPS:C10:1,2009-12-03T04:00:00Z,27.1690,-82.9260,4.0,41.18592516571,10.630145812735,-99999.0,'1111122,1111122,1199999999' 
COMPS,ioos:station:USF.COMPS:C10:1,2009-12-03T06:00:00Z,27.1690,-82.9260,4.0,108.43494882292,15.811388300842,-99999.0,'1111122,1111122,1199999999' 
COMPS,ioos:station:USF.COMPS:C10:1,2009-12-03T07:00:00Z,27.1690,-82.9260,4.0,97.125016348902,8.0622577482985,-99999.0,'1111122,1111122,1199999999' 
COMPS,ioos:station:USF.COMPS:C10:1,2009-12-03T08:00:00Z,27.1690,-82.9260,4.0,164.05460409908,7.2801098892805,-99999.0,'1111122,1111122,1199999999' 
COMPS,ioos:station:USF.COMPS:C10:1,2009-12-03T09:00:00Z,27.1690,-82.9260,4.0,153.43494882292,8.9442719099992,-99999.0,'1111122,1111122,1199999999' 
COMPS,ioos:station:USF.COMPS:C10:1,2009-12-03T10:00:00Z,27.1690,-82.9260,4.0,43.264295411072,23.345235059858,-99999.0,'1111122,1111122,1199999999' 
COMPS,ioos:station:USF.COMPS:C10:1,2009-12-03T11:00:00Z,27.1690,-82.9260,4.0,90.0,2.0,-99999.0,'1111122,1111122,1199999999' 
COMPS,ioos:station:USF.COMPS:C10:1,2009-12-03T12:00:00Z,27.1690,-82.9260,4.0,135.0,2.8284271247462,-99999.0,'1111122,1111122,1199999999' 
COMPS,ioos:station:USF.COMPS:C10:1,2009-12-03T13:00:00Z,27.1690,-82.9260,4.0,116.56505117708,6.7082039324994,-99999.0,'1111122,1111122,1199999999' 
COMPS,ioos:station:USF.COMPS:C10:1,2009-12-03T14:00:00Z,27.1690,-82.9260,4.0,45.0,2.8284271247462,-99999.0,'1111122,1111122,1199999999' 
COMPS,ioos:station:USF.COMPS:C10:1,2009-12-03T15:00:00Z,27.1690,-82.9260,4.0,135.0,4.2426406871193,-99999.0,'1111122,1111122,1199999999' 
COMPS,ioos:station:USF.COMPS:C10:1,2009-12-03T16:00:00Z,27.1690,-82.9260,4.0,116.56505117708,4.4721359549996,-99999.0,'1111122,1111122,1199999999' 
COMPS,ioos:station:USF.COMPS:C10:1,2009-12-03T17:00:00Z,27.1690,-82.9260,4.0,141.34019174591,6.4031242374328,-99999.0,'1111122,1111122,1199999999' 
COMPS,ioos:station:USF.COMPS:C10:1,2009-12-03T18:00:00Z,27.1690,-82.9260,4.0,233.13010235416,5.0,-99999.0,'1111122,1111122,1199999999' 
COMPS,ioos:station:USF.COMPS:C10:1,2009-12-03T19:00:00Z,27.1690,-82.9260,4.0,206.56505117708,4.4721359549996,-99999.0,'1111122,1111122,1199999999' 
COMPS,ioos:station:USF.COMPS:C10:1,2009-12-03T20:00:00Z,27.1690,-82.9260,4.0,147.99461679192,9.4339811320566,-99999.0,'1111122,1111122,1199999999' 
COMPS,ioos:station:USF.COMPS:C10:1,2009-12-03T21:00:00Z,27.1690,-82.9260,4.0,189.46232220803,6.0827625302982,-99999.0,'1111122,1111122,1199999999' 
COMPS,ioos:station:USF.COMPS:C10:1,2009-12-03T22:00:00Z,27.1690,-82.9260,4.0,180.0,7.0,-99999.0,'1111122,1111122,1199999999' 
COMPS,ioos:station:USF.COMPS:C10:1,2009-12-03T23:00:00Z,27.1690,-82.9260,4.0,180.0,5.0,-99999.0,'1111122,1111122,1199999999' 
COMPS,ioos:station:USF.COMPS:C10:1,2009-12-04T00:00:00Z,27.1690,-82.9260,4.0,168.69006752598,5.0990195135928,-99999.0,'1111122,1111122,1199999999' 
COMPS,ioos:station:USF.COMPS:C10:1,2009-12-04T01:00:00Z,27.1690,-82.9260,4.0,180.0,5.0,-99999.0,'1111122,1111122,1199999999' 
COMPS,ioos:station:USF.COMPS:C10:1,2009-12-04T02:00:00Z,27.1690,-82.9260,4.0,129.2894068625,14.212670403552,-99999.0,'1111122,1111122,1199999999' 
COMPS,ioos:station:USF.COMPS:C10:1,2009-12-04T03:00:00Z,27.1690,-82.9260,4.0,129.80557109227,15.620499351813,-99999.0,'1111122,1111122,1199999999' 
COMPS,ioos:station:USF.COMPS:C10:1,2009-12-04T04:00:00Z,27.1690,-82.9260,4.0,159.77514056883,20.248456731317,-99999.0,'1111122,1111122,1199999999' 
COMPS,ioos:station:USF.COMPS:C10:1,2009-12-04T06:00:00Z,27.1690,-82.9260,4.0,182.72631099391,21.023796041629,-99999.0,'1111122,1111122,1199999999' 
COMPS,ioos:station:USF.COMPS:C10:1,2009-12-04T07:00:00Z,27.1690,-82.9260,4.0,195.25511870306,22.803508501983,-99999.0,'1111122,1111122,1199999999' 
COMPS,ioos:station:USF.COMPS:C10:1,2009-12-04T08:00:00Z,27.1690,-82.9260,4.0,196.69924423399,20.880613017821,-99999.0,'1111122,1111122,1199999999' 
COMPS,ioos:station:USF.COMPS:C10:1,2009-12-04T09:00:00Z,27.1690,-82.9260,4.0,208.07248693585,17.0,-99999.0,'1111122,1111122,1199999999' 
COMPS,ioos:station:USF.COMPS:C10:1,2009-12-04T10:00:00Z,27.1690,-82.9260,4.0,227.72631099391,14.866068747319,-99999.0,'1111122,1111122,1199999999' 
COMPS,ioos:station:USF.COMPS:C10:1,2009-12-04T11:00:00Z,27.1690,-82.9260,4.0,236.30993247402,10.816653826392,-99999.0,'1111122,1111122,1199999999' 
COMPS,ioos:station:USF.COMPS:C10:1,2009-12-04T12:00:00Z,27.1690,-82.9260,4.0,233.13010235416,5.0,-99999.0,'1111122,1111122,1199999999' 
COMPS,ioos:station:USF.COMPS:C10:1,2009-12-04T13:00:00Z,27.1690,-82.9260,4.0,180.0,4.0,-99999.0,'1111122,1111122,1199999999' 
COMPS,ioos:station:USF.COMPS:C10:1,2009-12-04T14:00:00Z,27.1690,-82.9260,4.0,168.69006752598,5.0990195135928,-99999.0,'1111122,1111122,1199999999' 
COMPS,ioos:station:USF.COMPS:C10:1,2009-12-04T15:00:00Z,27.1690,-82.9260,4.0,129.80557109227,7.8102496759067,-99999.0,'1111122,1111122,1199999999' 
COMPS,ioos:station:USF.COMPS:C10:1,2009-12-04T16:00:00Z,27.1690,-82.9260,4.0,90.0,6.0,-99999.0,'1111122,1111122,1199999999' 
COMPS,ioos:station:USF.COMPS:C10:1,2009-12-04T17:00:00Z,27.1690,-82.9260,4.0,146.30993247402,3.605551275464,-99999.0,'1111122,1111122,1199999999' 
COMPS,ioos:station:USF.COMPS:C10:1,2009-12-04T18:00:00Z,27.1690,-82.9260,4.0,191.30993247402,10.198039027186,-99999.0,'1111122,1111122,1199999999' 
COMPS,ioos:station:USF.COMPS:C10:1,2009-12-04T19:00:00Z,27.1690,-82.9260,4.0,183.81407483429,15.033296378373,-99999.0,'1111122,1111122,1199999999' 
COMPS,ioos:station:USF.COMPS:C10:1,2009-12-04T20:00:00Z,27.1690,-82.9260,4.0,229.398705355,9.2195444572929,-99999.0,'1111122,1111122,1199999999' 
COMPS,ioos:station:USF.COMPS:C10:1,2009-12-04T21:00:00Z,27.1690,-82.9260,4.0,237.72435568542,22.472205054244,-99999.0,'1111122,1111122,1199999999' 
COMPS,ioos:station:USF.COMPS:C10:1,2009-12-04T22:00:00Z,27.1690,-82.9260,4.0,202.61986494804,13.0,-99999.0,'1111122,1111122,1199999999' 
COMPS,ioos:station:USF.COMPS:C10:1,2009-12-04T23:00:00Z,27.1690,-82.9260,4.0,195.94539590092,14.560219778561,-99999.0,'1111122,1111122,1199999999' 
COMPS,ioos:station:USF.COMPS:C10:1,2009-12-05T00:00:00Z,27.1690,-82.9260,4.0,180.0,16.0,-99999.0,'1111122,1111122,1199999999' 
COMPS,ioos:station:USF.COMPS:C10:1,2009-12-05T01:00:00Z,27.1690,-82.9260,4.0,156.50143432405,25.079872407969,-99999.0,'1111122,1111122,1199999999' 
COMPS,ioos:station:USF.COMPS:C10:1,2009-12-05T02:00:00Z,27.1690,-82.9260,4.0,125.21759296819,20.808652046685,-99999.0,'1111122,1111122,1199999999' 
COMPS,ioos:station:USF.COMPS:C10:1,2009-12-05T03:00:00Z,27.1690,-82.9260,4.0,130.23635830927,17.029386365926,-99999.0,'1111122,1111122,1199999999' 
COMPS,ioos:station:USF.COMPS:C10:1,2009-12-05T04:00:00Z,27.1690,-82.9260,4.0,152.35402463626,23.706539182259,-99999.0,'1111122,1111122,1199999999' 
COMPS,ioos:station:USF.COMPS:C10:1,2009-12-05T05:00:00Z,27.1690,-82.9260,4.0,159.44395478042,25.632011235953,-99999.0,'1111122,1111122,1199999999' 
COMPS,ioos:station:USF.COMPS:C10:1,2009-12-05T06:00:00Z,27.1690,-82.9260,4.0,163.07248693585,24.041630560343,-99999.0,'1111122,1111122,1199999999' 
COMPS,ioos:station:USF.COMPS:C10:1,2009-12-05T07:00:00Z,27.1690,-82.9260,4.0,205.70995378081,29.966648127543,-99999.0,'1111122,1111122,1199999999' 
COMPS,ioos:station:USF.COMPS:C10:1,2009-12-05T08:00:00Z,27.1690,-82.9260,4.0,175.91438322003,14.035668847618,-99999.0,'1111122,1111122,1199999999' 
COMPS,ioos:station:USF.COMPS:C10:1,2009-12-05T09:00:00Z,27.1690,-82.9260,4.0,198.43494882292,18.97366596101,-99999.0,'1111122,1111122,1199999999' 
COMPS,ioos:station:USF.COMPS:C10:1,2009-12-05T10:00:00Z,27.1690,-82.9260,4.0,220.601294645,18.439088914586,-99999.0,'1111122,1111122,1199999999' 
COMPS,ioos:station:USF.COMPS:C10:1,2009-12-05T11:00:00Z,27.1690,-82.9260,4.0,198.43494882292,12.649110640674,-99999.0,'1111122,1111122,1199999999' 
COMPS,ioos:station:USF.COMPS:C10:1,2009-12-05T12:00:00Z,27.1690,-82.9260,4.0,213.69006752598,7.211102550928,-99999.0,'1111122,1111122,1199999999' 
COMPS,ioos:station:USF.COMPS:C10:1,2009-12-05T13:00:00Z,27.1690,-82.9260,4.0,194.03624346793,4.1231056256177,-99999.0,'1111122,1111122,1199999999' 
COMPS,ioos:station:USF.COMPS:C10:1,2009-12-05T14:00:00Z,27.1690,-82.9260,4.0,209.74488129694,8.0622577482985,-99999.0,'1111122,1111122,1199999999' 
COMPS,ioos:station:USF.COMPS:C10:1,2009-12-05T15:00:00Z,27.1690,-82.9260,4.0,161.56505117708,6.3245553203368,-99999.0,'1111122,1111122,1199999999' 
COMPS,ioos:station:USF.COMPS:C10:1,2009-12-05T16:00:00Z,27.1690,-82.9260,4.0,225.0,7.0710678118655,-99999.0,'1111122,1111122,1199999999' 
COMPS,ioos:station:USF.COMPS:C10:1,2009-12-05T17:00:00Z,27.1690,-82.9260,4.0,162.64597536374,16.76305461424,-99999.0,'1111122,1111122,1199999999' 
COMPS,ioos:station:USF.COMPS:C10:1,2009-12-05T18:00:00Z,27.1690,-82.9260,4.0,129.80557109227,7.8102496759067,-99999.0,'1111122,1111122,1199999999' 
COMPS,ioos:station:USF.COMPS:C10:1,2009-12-05T19:00:00Z,27.1690,-82.9260,4.0,132.70938995736,17.691806012954,-99999.0,'1111122,1111122,1199999999' 
COMPS,ioos:station:USF.COMPS:C10:1,2009-12-05T20:00:00Z,27.1690,-82.9260,4.0,258.69006752598,5.0990195135928,-99999.0,'1111122,1111122,1199999999' 
COMPS,ioos:station:USF.COMPS:C10:1,2009-12-05T21:00:00Z,27.1690,-82.9260,4.0,176.98721249582,19.02629759044,-99999.0,'1111122,1111122,1199999999' 
COMPS,ioos:station:USF.COMPS:C10:1,2009-12-05T22:00:00Z,27.1690,-82.9260,4.0,137.72631099391,14.866068747319,-99999.0,'1111122,1111122,1199999999' 
COMPS,ioos:station:USF.COMPS:C10:1,2009-12-05T23:00:00Z,27.1690,-82.9260,4.0,158.96248897458,13.928388277184,-99999.0,'1111122,1111122,1199999999' 
COMPS,ioos:station:USF.COMPS:C10:1,2009-12-06T00:00:00Z,27.1690,-82.9260,4.0,159.14554196042,22.472205054244,-99999.0,'1111122,1111122,1199999999' 
COMPS,ioos:station:USF.COMPS:C10:1,2009-12-06T01:00:00Z,27.1690,-82.9260,4.0,140.52754015166,22.022715545545,-99999.0,'1111122,1111122,1199999999' 
COMPS,ioos:station:USF.COMPS:C10:1,2009-12-06T02:00:00Z,27.1690,-82.9260,4.0,180.0,30.0,-99999.0,'1111122,1111122,1199999999' 
COMPS,ioos:station:USF.COMPS:C10:1,2009-12-06T03:00:00Z,27.1690,-82.9260,4.0,158.19859051365,21.540659228538,-99999.0,'1111122,1111122,1199999999' 
COMPS,ioos:station:USF.COMPS:C10:1,2009-12-06T04:00:00Z,27.1690,-82.9260,4.0,154.53665493813,23.259406699226,-99999.0,'1111122,1111122,1199999999' 
COMPS,ioos:station:USF.COMPS:C10:1,2009-12-06T05:00:00Z,27.1690,-82.9260,4.0,174.55966796899,21.095023109729,-99999.0,'1111122,1111122,1199999999' 
COMPS,ioos:station:USF.COMPS:C10:1,2009-12-06T06:00:00Z,27.1690,-82.9260,4.0,145.61965527616,23.021728866443,-99999.0,'1111122,1111122,1199999999' 
COMPS,ioos:station:USF.COMPS:C10:1,2009-12-06T07:00:00Z,27.1690,-82.9260,4.0,162.47443162628,19.924858845171,-99999.0,'1111122,1111122,1199999999' 
COMPS,ioos:station:USF.COMPS:C10:1,2009-12-06T08:00:00Z,27.1690,-82.9260,4.0,185.7105931375,20.099751242242,-99999.0,'1111122,1111122,1199999999' 
COMPS,ioos:station:USF.COMPS:C10:1,2009-12-06T09:00:00Z,27.1690,-82.9260,4.0,180.0,16.0,-99999.0,'1111122,1111122,1199999999' 
COMPS,ioos:station:USF.COMPS:C10:1,2009-12-06T10:00:00Z,27.1690,-82.9260,4.0,180.0,19.0,-99999.0,'1111122,1111122,1199999999' 
COMPS,ioos:station:USF.COMPS:C10:1,2009-12-06T11:00:00Z,27.1690,-82.9260,4.0,175.91438322003,14.035668847618,-99999.0,'1111122,1111122,1199999999' 
COMPS,ioos:station:USF.COMPS:C10:1,2009-12-06T12:00:00Z,27.1690,-82.9260,4.0,184.398705355,13.038404810405,-99999.0,'1111122,1111122,1199999999' 
COMPS,ioos:station:USF.COMPS:C10:1,2009-12-06T13:00:00Z,27.1690,-82.9260,4.0,180.0,16.0,-99999.0,'1111122,1111122,1199999999' 
COMPS,ioos:station:USF.COMPS:C10:1,2009-12-06T14:00:00Z,27.1690,-82.9260,4.0,135.0,2.8284271247462,-99999.0,'1111122,1111122,1199999999' 
COMPS,ioos:station:USF.COMPS:C10:1,2009-12-06T15:00:00Z,27.1690,-82.9260,4.0,110.55604521958,8.5440037453175,-99999.0,'1111122,1111122,1199999999' 
COMPS,ioos:station:USF.COMPS:C10:1,2009-12-06T16:00:00Z,27.1690,-82.9260,4.0,119.05460409908,10.295630140987,-99999.0,'1111122,1111122,1199999999' 
COMPS,ioos:station:USF.COMPS:C10:1,2009-12-06T17:00:00Z,27.1690,-82.9260,4.0,127.8749836511,11.401754250991,-99999.0,'1111122,1111122,1199999999' 
COMPS,ioos:station:USF.COMPS:C10:1,2009-12-06T18:00:00Z,27.1690,-82.9260,4.0,138.36646066343,12.041594578792,-99999.0,'1111122,1111122,1199999999' 
COMPS,ioos:station:USF.COMPS:C10:1,2009-12-06T19:00:00Z,27.1690,-82.9260,4.0,105.94539590092,7.2801098892805,-99999.0,'1111122,1111122,1199999999' 
COMPS,ioos:station:USF.COMPS:C10:1,2009-12-06T20:00:00Z,27.1690,-82.9260,4.0,140.19442890773,7.8102496759067,-99999.0,'1111122,1111122,1199999999' 
COMPS,ioos:station:USF.COMPS:C10:1,2009-12-06T21:00:00Z,27.1690,-82.9260,4.0,161.56505117708,9.4868329805051,-99999.0,'1111122,1111122,1199999999' 
COMPS,ioos:station:USF.COMPS:C10:1,2009-12-06T22:00:00Z,27.1690,-82.9260,4.0,194.03624346793,8.2462112512353,-99999.0,'1111122,1111122,1199999999' 
COMPS,ioos:station:USF.COMPS:C10:1,2009-12-06T23:00:00Z,27.1690,-82.9260,4.0,171.86989764584,7.0710678118655,-99999.0,'1111122,1111122,1199999999' 
COMPS,ioos:station:USF.COMPS:C10:1,2009-12-07T00:00:00Z,27.1690,-82.9260,4.0,180.0,5.0,-99999.0,'1111122,1111122,1199999999' 
COMPS,ioos:station:USF.COMPS:C10:1,2009-12-07T01:00:00Z,27.1690,-82.9260,4.0,172.8749836511,8.0622577482985,-99999.0,'1111122,1111122,1199999999' 
COMPS,ioos:station:USF.COMPS:C10:1,2009-12-07T02:00:00Z,27.1690,-82.9260,4.0,161.56505117708,3.1622776601684,-99999.0,'1111122,1111122,1199999999' 
COMPS,ioos:station:USF.COMPS:C10:1,2009-12-07T03:00:00Z,27.1690,-82.9260,4.0,110.55604521958,8.5440037453175,-99999.0,'1111122,1111122,1199999999' 
COMPS,ioos:station:USF.COMPS:C10:1,2009-12-07T04:00:00Z,27.1690,-82.9260,4.0,135.0,8.4852813742386,-99999.0,'1111122,1111122,1199999999' 
COMPS,ioos:station:USF.COMPS:C10:1,2009-12-07T05:00:00Z,27.1690,-82.9260,4.0,142.1250163489,11.401754250991,-99999.0,'1111122,1111122,1199999999' 
COMPS,ioos:station:USF.COMPS:C10:1,2009-12-07T06:00:00Z,27.1690,-82.9260,4.0,151.69924423399,14.764823060233,-99999.0,'1111122,1111122,1199999999' 
COMPS,ioos:station:USF.COMPS:C10:1,2009-12-07T07:00:00Z,27.1690,-82.9260,4.0,158.19859051365,16.155494421404,-99999.0,'1111122,1111122,1199999999' 
COMPS,ioos:station:USF.COMPS:C10:1,2009-12-07T08:00:00Z,27.1690,-82.9260,4.0,166.75948008481,17.464249196573,-99999.0,'1111122,1111122,1199999999' 
COMPS,ioos:station:USF.COMPS:C10:1,2009-12-07T09:00:00Z,27.1690,-82.9260,4.0,169.99202019856,17.262676501632,-99999.0,'1111122,1111122,1199999999' 
COMPS,ioos:station:USF.COMPS:C10:1,2009-12-07T10:00:00Z,27.1690,-82.9260,4.0,180.0,14.0,-99999.0,'1111122,1111122,1199999999' 
COMPS,ioos:station:USF.COMPS:C10:1,2009-12-07T11:00:00Z,27.1690,-82.9260,4.0,186.34019174591,9.0553851381374,-99999.0,'1111122,1111122,1199999999' 
COMPS,ioos:station:USF.COMPS:C10:1,2009-12-07T12:00:00Z,27.1690,-82.9260,4.0,189.46232220803,12.165525060596,-99999.0,'1111122,1111122,1199999999' 
COMPS,ioos:station:USF.COMPS:C10:1,2009-12-07T13:00:00Z,27.1690,-82.9260,4.0,201.80140948635,5.3851648071345,-99999.0,'1111122,1111122,1199999999' 
COMPS,ioos:station:USF.COMPS:C10:1,2009-12-07T15:00:00Z,27.1690,-82.9260,4.0,180.0,7.0,-99999.0,'1111122,1111122,1199999999' 
COMPS,ioos:station:USF.COMPS:C10:1,2009-12-07T17:00:00Z,27.1690,-82.9260,4.0,90.0,5.0,-99999.0,'1111122,1111122,1199999999' 
COMPS,ioos:station:USF.COMPS:C10:1,2009-12-07T18:00:00Z,27.1690,-82.9260,4.0,90.0,3.0,-99999.0,'1111122,1111122,1199999999' 
COMPS,ioos:station:USF.COMPS:C10:1,2009-12-07T20:00:00Z,27.1690,-82.9260,4.0,146.30993247402,3.605551275464,-99999.0,'1111122,1111122,1199999999' 
COMPS,ioos:station:USF.COMPS:C10:1,2009-12-07T21:00:00Z,27.1690,-82.9260,4.0,108.43494882292,3.1622776601684,-99999.0,'1111122,1111122,1199999999' 
COMPS,ioos:station:USF.COMPS:C10:1,2009-12-07T22:00:00Z,27.1690,-82.9260,4.0,0.0,1.0,-99999.0,'1113322,1114422,1199999999' 
COMPS,ioos:station:USF.COMPS:C10:1,2009-12-07T23:00:00Z,27.1690,-82.9260,4.0,180.0,5.0,-99999.0,'1111122,1111122,1199999999' 
COMPS,ioos:station:USF.COMPS:C10:1,2009-12-08T01:00:00Z,27.1690,-82.9260,4.0,225.0,7.0710678118655,-99999.0,'1111122,1111122,1199999999' 
COMPS,ioos:station:USF.COMPS:C10:1,2009-12-08T02:00:00Z,27.1690,-82.9260,4.0,225.0,1.4142135623731,-99999.0,'1111122,1111122,1199999999' 
COMPS,ioos:station:USF.COMPS:C10:1,2009-12-08T03:00:00Z,27.1690,-82.9260,4.0,0.0,1.0,-99999.0,'1113322,1114422,1199999999' 
COMPS,ioos:station:USF.COMPS:C10:1,2009-12-08T04:00:00Z,27.1690,-82.9260,4.0,243.43494882292,2.2360679774998,-99999.0,'1111122,1111122,1199999999' 
COMPS,ioos:station:USF.COMPS:C10:1,2009-12-08T05:00:00Z,27.1690,-82.9260,4.0,206.56505117708,2.2360679774998,-99999.0,'1111122,1111122,1199999999' 
COMPS,ioos:station:USF.COMPS:C10:1,2009-12-08T06:00:00Z,27.1690,-82.9260,4.0,116.56505117708,4.4721359549996,-99999.0,'1111122,1111122,1199999999' 
COMPS,ioos:station:USF.COMPS:C10:1,2009-12-08T07:00:00Z,27.1690,-82.9260,4.0,116.56505117708,4.4721359549996,-99999.0,'1111122,1111122,1199999999' 
COMPS,ioos:station:USF.COMPS:C10:1,2009-12-08T08:00:00Z,27.1690,-82.9260,4.0,101.30993247402,5.0990195135928,-99999.0,'1111122,1111122,1199999999' 
COMPS,ioos:station:USF.COMPS:C10:1,2009-12-08T09:00:00Z,27.1690,-82.9260,4.0,158.19859051365,5.3851648071345,-99999.0,'1111122,1111122,1199999999' 
COMPS,ioos:station:USF.COMPS:C10:1,2009-12-08T10:00:00Z,27.1690,-82.9260,4.0,165.96375653207,4.1231056256177,-99999.0,'1111122,1111122,1199999999' 
COMPS,ioos:station:USF.COMPS:C10:1,2009-12-08T11:00:00Z,27.1690,-82.9260,4.0,180.0,5.0,-99999.0,'1111122,1111122,1199999999' 
COMPS,ioos:station:USF.COMPS:C10:1,2009-12-08T12:00:00Z,27.1690,-82.9260,4.0,225.0,1.4142135623731,-99999.0,'1111122,1111122,1199999999' 
COMPS,ioos:station:USF.COMPS:C10:1,2009-12-08T13:00:00Z,27.1690,-82.9260,4.0,270.0,3.0,-99999.0,'1111122,1111122,1199999999' 